Regional Weather Roundup
Issued by NWS

Home | Current Version | Previous Version | Graphics & Text | Print | Product List | Glossary On
Versions: 1 2 3 4 5 6 7 8 9 10 11 12 13 14 15 16 17 18 19 20 21 22 23 24 25 26 27 28 29 30 31 32 33 34 35 36 37 38 39 40 41 42 43 44 45 46 47 48 49 50
000
ASUS43 KLMK 231910
RWRKY
KENTUCKY REGIONAL WEATHER ROUNDUP
NATIONAL WEATHER SERVICE LOUISVILLE KY
300 PM EDT SAT JUL 23 2016

NOTE "FAIR" INDICATES FEW OR NO CLOUDS BELOW 12,000 FEET
WITH NO SIGNIFICANT WEATHER AND/OR OBSTRUCTIONS TO VISIBILITY.

KYZ001>023-026-027-061>063-070>075-232000-
WESTERN AND SOUTH CENTRAL KENTUCKY

CITY           SKY/WX    TMP DP  RH WIND       PRES   REMARKS
PADUCAH        MOSUNNY   90  74  59 VRB3      29.97F HX  99
HENDERSON      MOSUNNY   90  75  62 CALM      29.97F HX 100
OWENSBORO      PTSUNNY   92  78  63 S7        29.99F HX 107
HOPKINSVILLE   MOSUNNY   91  77  63 SW5       29.98S HX 103
BOWLING GREEN  SUNNY     91  76  61 CALM      29.99F HX 103
GLASGOW        PTSUNNY   92  73  52 CALM      30.00S HX 101
$$

KYZ024-025-028>034-038-045-046-053-232000-
NORTH CENTRAL KENTUCKY

CITY           SKY/WX    TMP DP  RH WIND       PRES   REMARKS
LOUISVILLE/SDF PTSUNNY   91  71  51 VRB3      29.99F HX  97
LOUISVILLE/LOU MOSUNNY   93  70  46 MISG      29.99F HX  99
FORT KNOX      MOSUNNY   91  73  56 VRB3      30.00S HX  99
$$

KYZ035>037-039>044-047>052-055>060-089>105-232000-
NORTHEAST KENTUCKY

CITY           SKY/WX    TMP DP  RH WIND       PRES   REMARKS
LEXINGTON      MOSUNNY   92  70  48 VRB3      30.03R HX  97
COVINGTON      MOSUNNY   90  72  55 VRB5      30.02S HX  97
FRANKFORT      MOSUNNY   92  72  51 VRB3      30.01S HX  99
$$

KYZ054-064>069-076>088-106>120-232000-
SOUTHEAST KENTUCKY

CITY           SKY/WX    TMP DP  RH WIND       PRES   REMARKS
JACKSON        MOSUNNY   90  71  53 CALM      30.04F HX  96
LONDON         MOSUNNY   91  67  44 NW3       30.03F HX  94
SOMERSET       PTSUNNY   88  68  51 SW3       30.03R HX  91
MIDDLESBORO    MOSUNNY   90  74  58 W6        30.02S HX  98
MONTICELLO     PTCLDY   N/A N/A N/A N13       30.03F
$$





USA.gov is the U.S. government's official web portal to all federal, state and local government web resources and services.